Find Starlink 3812

NORAD ID: 52346 Int'l Des: 2022-045 Owner: SPXS Country: US Constellation: starlink operational
LEOCIRCULAR

現在のビュー

3D地球を読み込み中...

About Starlink 3812

Starlink 3812 (NORAD 52346) is a starlink constellation satellite (v1.5) launched Apr 29, 2022 by SPXS of US. It operates in LEO, CIRCULAR orbit with a mass of 297.00 kg.

Starlink 3812について

説明を読み込み中...

次回通過

Passes for default location (London). Set your location on the main map for personalized predictions.

高度履歴

Loading altitude history...

軌道要素

1 52346U 22045R 26164.62390798 .00000478 00000-0 48124-4 0 9998
2 52346 53.1608 128.3914 0001650 83.2279 276.8900 15.08828526230266
Epoch: Jun 13, 2026 • Age: 5 hours

現在のステータス

高度 539.7 km
速度 7.60 km/s
衛星直下点 21.36°N, 55.65°W
打ち上げ日 Apr 29, 2022
運用期間 4.1 years
タイプ internet

技術仕様

分類 Payload
質量 297.00 kg
乾燥質量 275.00 kg
総質量 297.00 kg
長さ 0.20 m
直径 2.80 m
スパン 9.00 m
形状 Box + pan
製造者 SPXS
バスタイプ Starlink
フェーズステータス In Orbit
所有者/国 SPXS/US

Most Searched